EW1392 Weather Reports


Display with metric or nautical units.
time (UTC)temp
F
wind
direction
speed
MPH
gust
MPH
rain 1hr
in
rain 24hr
in
rain mn
in
humidity
%
barometer
mb
20260508101547 40 192 0.0 0.0 0.00 0.00 0.00 84 1012.4
20260508100045 40 192 0.0 0.0 0.00 0.00 0.00 84 1012.4
20260508094554 41 192 0.0 0.0 0.00 0.00 0.00 82 1012.5
20260508093042 41 192 0.0 0.0 0.00 0.00 0.00 82 1012.2
20260508091540 42 192 0.0 0.0 0.00 0.00 0.00 81 1012.4
20260508090038 42 192 0.0 0.0 0.00 0.00 0.00 80 1012.6
20260508084536 43 192 0.0 0.0 0.00 0.00 0.00 78 1012.5
20260508083113 43 192 0.0 0.0 0.00 0.00 0.00 77 1012.6
20260508081532 44 192 0.0 0.0 0.00 0.00 0.00 77 1012.6
20260508080035 44 192 0.0 0.0 0.00 0.00 0.00 75 1012.6
20260508074533 45 192 0.0 0.0 0.00 0.00 0.00 73 1012.5
20260508073026 46 192 0.0 0.0 0.00 0.00 0.00 72 1012.6
20260508071528 46 192 0.0 0.0 0.00 0.00 0.00 70 1012.6
20260508070019 48 192 0.0 0.0 0.00 0.00 0.00 68 1012.5
20260508064538 49 192 0.0 0.0 0.00 0.00 0.00 66 1012.7
20260508063017 50 192 0.0 2.0 0.00 0.00 0.00 66 1012.6
20260508061522 51 192 0.0 0.0 0.00 0.00 0.00 61 1012.6
20260508060017 52 192 0.0 1.0 0.00 0.00 0.00 59 1012.7
20260508054520 53 192 0.0 1.0 0.00 0.00 0.00 59 1012.7
20260508053016 54 192 0.0 2.0 0.00 0.00 0.00 58 1012.6
20260508051516 55 132 0.0 3.0 0.00 0.00 0.00 52 1012.5
20260508050015 56 252 0.0 2.0 0.00 0.00 0.00 52 1012.4
20260508044515 57 252 0.0 0.0 0.00 0.00 0.00 46 1012.4
20260508043014 58 252 0.0 0.0 0.00 0.00 0.00 48 1012.4
20260508041515 59 252 0.0 2.0 0.00 0.00 0.00 47 1012.3
20260508040014 60 344 0.0 3.0 0.00 0.00 0.00 40 1012.1
20260508034514 61 190 0.0 5.0 0.00 0.00 0.00 40 1012.0
20260508033016 62 142 0.0 8.0 0.00 0.00 0.00 33 1011.9
20260508031512 63 300 1.0 8.0 0.00 0.00 0.00 36 1011.7
20260508030012 63 236 1.0 4.0 0.00 0.00 0.00 34 1011.6
20260508024521 64 155 0.0 3.0 0.00 0.00 0.00 33 1011.4
20260508023010 65 150 0.0 4.0 0.00 0.00 0.00 32 1011.2
20260508021511 66 261 1.0 7.0 0.00 0.00 0.00 33 1011.2
20260508020014 67 194 2.0 7.0 0.00 0.00 0.00 36 1011.0
20260508014509 69 186 1.0 7.0 0.00 0.00 0.00 41 1010.5
20260508013007 70 258 0.0 5.0 0.00 0.00 0.00 43 1010.4
20260508011507 71 197 1.0 3.0 0.00 0.00 0.00 44 1010.3
20260508010006 72 306 0.0 4.0 0.00 0.00 0.00 44 1010.1
20260508004506 73 203 0.0 5.0 0.00 0.00 0.00 43 1010.0
20260508003006 74 198 0.0 6.0 0.00 0.00 0.00 41 1010.0
20260508001504 75 161 0.0 3.0 0.00 0.00 0.00 41 1010.0
20260508000004 76 158 0.0 5.0 0.00 0.00 0.00 40 1010.0
20260507234503 77 198 0.0 2.0 0.00 0.00 0.00 37 1009.9
20260507233004 77 202 0.0 3.0 0.00 0.00 0.00 35 1009.9
20260507231501 78 205 0.0 5.0 0.00 0.00 0.00 33 1010.0
20260507230059 78 198 0.0 4.0 0.00 0.00 0.00 33 1010.1
20260507224605 76 159 0.0 2.0 0.00 0.00 0.00 34 1010.2
20260507223056 75 325 0.0 3.0 0.00 0.00 0.00 34 1010.4
20260507221550 75 253 0.0 0.0 0.00 0.00 0.00 36 1010.7
20260507220048 74 265 2.0 4.0 0.00 0.00 0.00 33 1011.0
20260507214545 73 91 0.0 2.0 0.00 0.00 0.00 36 1011.2
20260507213057 73 254 0.0 2.0 0.00 0.00 0.00 37 1011.3
20260507211542 72 21 0.0 2.0 0.00 0.00 0.00 39 1011.7
20260507210044 72 107 0.0 2.0 0.00 0.00 0.00 41 1011.9
20260507204543 72 120 0.0 2.0 0.00 0.00 0.00 42 1012.1
20260507203032 71 246 0.0 3.0 0.00 0.00 0.00 41 1012.3
20260507201530 71 273 0.0 3.0 0.00 0.00 0.00 42 1012.6
20260507200034 70 145 0.0 1.0 0.00 0.00 0.00 44 1012.8
20260507194524 69 199 0.0 2.0 0.00 0.00 0.00 48 1012.9
20260507193026 68 177 0.0 2.0 0.00 0.00 0.00 46 1013.0
20260507191518 68 210 0.0 1.0 0.00 0.00 0.00 48 1013.2
20260507190031 67 215 0.0 3.0 0.00 0.00 0.00 48 1013.4
20260507184511 66 189 0.0 3.0 0.00 0.00 0.00 52 1013.4
20260507183016 65 205 0.0 2.0 0.00 0.00 0.00 52 1013.5
20260507181506 64 62 0.0 3.0 0.00 0.00 0.00 53 1013.6
20260507180009 63 147 0.0 2.0 0.00 0.00 0.00 52 1013.8
20260507174502 63 163 0.0 3.0 0.00 0.00 0.00 56 1014.0
20260507173059 62 130 0.0 0.0 0.00 0.00 0.00 56 1014.1
20260507171603 62 225 0.0 1.0 0.00 0.00 0.00 57 1014.1
20260507170056 62 259 0.0 2.0 0.00 0.00 0.00 55 1014.2
20260507164556 61 212 0.0 4.0 0.00 0.00 0.00 55 1014.3
20260507163053 61 311 0.0 5.0 0.00 0.00 0.00 58 1014.3
20260507161551 60 205 0.0 2.0 0.00 0.00 0.00 58 1014.4
20260507160054 58 168 0.0 1.0 0.00 0.00 0.00 64 1014.5
20260507154543 55 294 0.0 4.0 0.00 0.00 0.00 71 1014.6
20260507153048 51 215 0.0 1.0 0.00 0.00 0.00 81 1014.6
20260507151540 48 215 0.0 0.0 0.00 0.00 0.00 87 1014.8
20260507150039 46 215 0.0 0.0 0.00 0.00 0.00 89 1015.0
20260507144538 44 215 0.0 1.0 0.00 0.00 0.00 89 1015.0
20260507143038 44 215 0.0 0.0 0.00 0.00 0.00 89 1015.0
20260507141536 43 215 0.0 0.0 0.00 0.00 0.00 88 1015.0
20260507140045 43 215 0.0 0.0 0.00 0.00 0.00 88 1014.9
20260507134533 43 215 0.0 0.0 0.00 0.00 0.00 87 1014.7
20260507133032 43 215 0.0 0.0 0.00 0.00 0.00 86 1014.5
20260507131534 43 215 0.0 0.0 0.00 0.00 0.00 85 1014.4
20260507130029 44 215 0.0 0.0 0.00 0.00 0.00 84 1014.5
20260507124527 45 215 0.0 0.0 0.00 0.00 0.00 82 1014.5
20260507123026 45 215 0.0 0.0 0.00 0.00 0.00 81 1014.5
20260507121521 46 215 0.0 1.0 0.00 0.00 0.00 79 1014.5
20260507120018 48 215 0.0 0.0 0.00 0.00 0.00 76 1014.6
20260507114515 49 215 0.0 1.0 0.00 0.00 0.00 74 1014.6
20260507113023 50 331 0.0 2.0 0.00 0.00 0.00 74 1014.6
20260507111511 50 309 0.0 1.0 0.00 0.00 0.00 72 1014.6
20260507110008 51 296 0.0 0.0 0.00 0.00 0.00 72 1014.6
20260507104506 51 266 0.0 0.0 0.00 0.00 0.00 69 1014.6
20260507103008 51 159 0.0 1.0 0.00 0.00 0.00 69 1014.7